Tacoma, WA

10:17 AM PDT on April 24, 2017 (GMT -0700)
McChord Air Force Base

Weather History for KTCM - February, 2012

Change the Weather History Date:

Friday, February 24, 2012

  Actual Average Record
Temperature  
Mean Temperature 42 °F -  
Max Temperature 46 °F 48 °F 62 °F (2005)
Min Temperature 38 °F 30 °F 18 °F (1993)
Degree Days  
Heating Degree Days 23    
Moisture  
Dew Point 40 °F    
Average Humidity 90    
Maximum Humidity 100    
Minimum Humidity 71    
Precipitation  
Precipitation 0.31 in - - ()
Sea Level Pressure  
Sea Level Pressure 29.79 in    
Wind  
Wind Speed 6 mph (SSW)    
Max Wind Speed 15 mph    
Max Gust Speed 23 mph    
Visibility 9 miles    
Events Rain    
Averages and records for this station are not official NWS values.
T = Trace of Precipitation, MM = Missing Value Source: NWS Daily Summary

Daily Weather History Graph

Daily Weather History Graph

Search for Another Location

Airport or City:

Trip Planner

Search our weather history database for the weather conditions in past years. The results will help you decide how hot, cold, wet, or windy it might be!

Date:

Astronomy

Feb. 24, 2012 Rise Set
Actual Time 6:59 AM PST 5:47 PM PST
Civil Twilight 6:28 AM PST 6:18 PM PST
Nautical Twilight 5:53 AM PST 6:53 PM PST
Astronomical Twilight 5:18 AM PST 7:28 PM PST
Moon 7:41 AM PST 9:13 PM PST
Length of Visible Light 11h 49m
Length of Day
10h 47m
Waxing Crescent, 8% of the Moon is Illuminated
Feb 24
Waxing Crescent
Feb 29
First Quarter
Mar 8
Full
Mar 14
Last Quarter
Mar 22
New

Hourly Weather History & Observations

Time (PST) Temp. Windchill Dew Point Humidity Pressure Visibility Wind Dir Wind Speed Gust Speed Precip Events Conditions
12:55 AM 39.2 °F 35.0 °F 35.8 °F 88% 30.30 in 10.0 mi South 5.8 mph - N/A   Mostly Cloudy
1:55 AM 38.8 °F 35.4 °F 36.5 °F 91% 30.29 in 10.0 mi South 4.6 mph - N/A   Mostly Cloudy
2:55 AM 39.4 °F - 36.0 °F 88% 30.26 in 10.0 mi Calm Calm - N/A   Overcast
3:55 AM 39.6 °F - 35.4 °F 85% 30.22 in 10.0 mi Calm Calm - N/A   Overcast
4:55 AM 40.6 °F 37.5 °F 34.9 °F 80% 30.20 in 10.0 mi South 4.6 mph - N/A   Overcast
5:55 AM 40.5 °F 37.3 °F 35.1 °F 81% 30.17 in 10.0 mi WSW 4.6 mph - N/A   Overcast
6:55 AM 39.7 °F - 36.1 °F 87% 30.13 in 10.0 mi Calm Calm - N/A   Overcast
7:55 AM 40.5 °F - 37.4 °F 89% 30.10 in 10.0 mi Calm Calm - N/A   Overcast
8:55 AM 41.4 °F - 36.3 °F 82% 30.05 in 10.0 mi Calm Calm - N/A   Overcast
9:55 AM 45.9 °F 42.9 °F 37.4 °F 72% 30.00 in 10.0 mi Variable 5.8 mph - N/A   Overcast
10:55 AM 44.6 °F 41.4 °F 37.4 °F 76% 29.98 in 10.0 mi SW 5.8 mph - N/A   Overcast
11:16 AM 46.4 °F 43.5 °F 37.4 °F 71% 29.97 in 10.0 mi WSW 5.8 mph - N/A Rain Light Rain
11:55 AM 46.4 °F 44.3 °F 39.2 °F 76% 29.95 in 10.0 mi SW 4.6 mph - 0.00 in Rain Light Rain
12:02 PM 46.4 °F 44.3 °F 39.2 °F 76% 29.94 in 10.0 mi WSW 4.6 mph - N/A   Overcast
12:07 PM 46.4 °F - 39.2 °F 76% 29.93 in 10.0 mi Calm Calm - N/A Rain Light Rain
12:08 PM 46.4 °F - 39.2 °F 76% 29.93 in 10.0 mi Calm Calm - N/A   Overcast
12:14 PM 46.4 °F 45.2 °F 39.2 °F 76% 29.93 in 10.0 mi West 3.5 mph - N/A Rain Light Rain
12:24 PM 46.4 °F 43.5 °F 39.2 °F 76% 29.92 in 10.0 mi West 5.8 mph - N/A   Overcast
12:55 PM 46.0 °F 43.9 °F 37.9 °F 73% 29.89 in 10.0 mi WSW 4.6 mph - 0.00 in   Overcast
1:55 PM 46.6 °F - 39.0 °F 75% 29.83 in 10.0 mi SSE 5.8 mph - 0.00 in Rain Light Rain
2:55 PM 44.4 °F 39.0 °F 41.9 °F 91% 29.79 in 10.0 mi South 10.4 mph - 0.03 in Rain Light Rain
3:55 PM 46.4 °F 41.9 °F 41.5 °F 83% 29.74 in 9.0 mi SSW 9.2 mph - 0.02 in Rain Light Rain
4:55 PM 44.8 °F 41.0 °F 43.3 °F 95% 29.72 in 5.0 mi SW 6.9 mph - 0.08 in Rain Light Rain
5:30 PM 44.6 °F 40.2 °F 42.8 °F 93% 29.73 in 6.0 mi WSW 8.1 mph - N/A Rain Light Rain
5:34 PM 44.6 °F 40.2 °F 42.8 °F 93% 29.73 in 6.0 mi WSW 8.1 mph - N/A Rain Light Rain
5:37 PM 44.6 °F 39.7 °F 42.8 °F 93% 29.72 in 6.0 mi WSW 9.2 mph - N/A   Overcast
5:55 PM 43.9 °F 38.3 °F 42.3 °F 94% 29.72 in 10.0 mi SSW 10.4 mph - 0.06 in Rain Light Rain
6:03 PM 44.6 °F 38.8 °F 42.8 °F 93% 29.70 in 10.0 mi South 11.5 mph - N/A Rain Light Rain
6:44 PM 44.6 °F 39.7 °F 42.8 °F 93% 29.68 in 10.0 mi South 9.2 mph - N/A   Overcast
6:46 PM 44.6 °F 39.7 °F 42.8 °F 93% 29.68 in 10.0 mi South 9.2 mph - N/A Rain Light Rain
6:55 PM 43.9 °F 41.3 °F 42.8 °F 96% 29.68 in 10.0 mi South 4.6 mph - 0.01 in Rain Light Rain
7:09 PM 44.6 °F 39.7 °F 42.8 °F 93% 29.68 in 10.0 mi South 9.2 mph - N/A   Overcast
7:47 PM 42.8 °F 40.1 °F 42.8 °F 100% 29.66 in 10.0 mi South 4.6 mph - N/A   Overcast
7:53 PM 42.8 °F 40.1 °F 42.8 °F 100% 29.66 in 10.0 mi South 4.6 mph - N/A Rain Light Rain
7:55 PM 43.2 °F 39.7 °F 42.6 °F 98% 29.66 in 10.0 mi South 5.8 mph - 0.00 in Rain Light Rain
8:23 PM 42.8 °F 39.3 °F 42.8 °F 100% 29.65 in 10.0 mi South 5.8 mph - N/A   Overcast
8:31 PM 42.8 °F 39.3 °F 42.8 °F 100% 29.65 in 10.0 mi South 5.8 mph - N/A Rain Light Rain
8:55 PM 43.5 °F 37.5 °F 42.3 °F 95% 29.65 in 6.0 mi South 11.5 mph - 0.03 in   Overcast
9:16 PM 42.8 °F 37.0 °F 42.8 °F 100% 29.64 in 10.0 mi South 10.4 mph - N/A Rain Light Rain
9:17 PM 42.8 °F 37.5 °F 42.8 °F 100% 29.64 in 10.0 mi South 9.2 mph - N/A   Overcast
9:44 PM 42.8 °F 37.0 °F 41.0 °F 93% 29.64 in 10.0 mi SSW 10.4 mph - N/A Rain Light Rain
9:52 PM 42.8 °F 36.6 °F 41.0 °F 93% 29.64 in 9.0 mi South 11.5 mph - N/A Rain Light Rain
9:55 PM 43.5 °F 37.5 °F 41.7 °F 93% 29.64 in 8.0 mi South 11.5 mph - 0.03 in   Overcast
10:23 PM 42.8 °F 35.4 °F 41.0 °F 93% 29.64 in 8.0 mi SSW 15.0 mph 21.9 mph N/A Rain Light Rain
10:26 PM 42.8 °F 35.8 °F 41.0 °F 93% 29.64 in 9.0 mi SSW 13.8 mph 21.9 mph N/A Rain Light Rain
10:29 PM 42.8 °F 35.4 °F 41.0 °F 93% 29.64 in 10.0 mi SSW 15.0 mph 21.9 mph N/A Rain Light Rain
10:32 PM 42.8 °F 36.6 °F 41.0 °F 93% 29.64 in 10.0 mi SSW 11.5 mph - N/A Rain Light Rain
10:52 PM 42.8 °F 35.8 °F 41.0 °F 93% 29.64 in 10.0 mi SSW 13.8 mph - N/A   Overcast
10:55 PM 42.3 °F 35.1 °F 41.2 °F 96% 29.64 in 10.0 mi SSW 13.8 mph - 0.04 in Rain Light Rain
11:05 PM 42.8 °F 36.2 °F 41.0 °F 93% 29.64 in 10.0 mi South 12.7 mph - N/A Rain Light Rain
11:07 PM 42.8 °F 36.2 °F 41.0 °F 93% 29.64 in 10.0 mi SSW 12.7 mph - N/A   Overcast
11:10 PM 42.8 °F 36.6 °F 41.0 °F 93% 29.64 in 10.0 mi SSW 11.5 mph - N/A   Overcast
11:11 PM 42.8 °F 36.2 °F 41.0 °F 93% 29.64 in 10.0 mi SSW 12.7 mph - N/A Rain Light Rain
11:18 PM 42.8 °F 36.2 °F 41.0 °F 93% 29.63 in 7.0 mi SSW 12.7 mph 23.0 mph N/A Rain Light Rain
11:20 PM 42.8 °F 37.0 °F 41.0 °F 93% 29.63 in 7.0 mi SSW 10.4 mph 23.0 mph N/A Rain Light Rain
11:26 PM 42.8 °F 37.5 °F 41.0 °F 93% 29.63 in 10.0 mi South 9.2 mph - N/A   Overcast
11:44 PM 41.0 °F 34.3 °F 41.0 °F 100% 29.63 in 10.0 mi South 11.5 mph - N/A   Overcast
11:46 PM 41.0 °F 34.3 °F 41.0 °F 100% 29.63 in 10.0 mi South 11.5 mph - N/A   Overcast
11:49 PM 41.0 °F 33.5 °F 41.0 °F 100% 29.63 in 10.0 mi South 13.8 mph - N/A   Overcast
11:55 PM 41.5 °F 35.0 °F 40.8 °F 97% 29.63 in 10.0 mi South 11.5 mph - 0.01 in   Overcast